Temperature
1 1 1 2 2 2 2 2 2 2 2 3 3 3 3 3 3 4 4 4 4 4 4 4 4 4 4 4 4 4 4 4 4 4 4 4 4 4
1 1 1 1 1 1 1 2 2 1 1 2 2 2 2 3 3 3 3 3 3 3 3 3 3 3 3 3 3 3 3 4 4 4 3 3 3 3
0 0 1 1 1 1 1 1 1 1 1 1 1 2 2 2 2 2 2 2 3 3 3 3 3 3 3 3 3 3 3 3 3 3 3 3 3 3
0 0 0 0 0 0 0 0 0 1 1 1 1 1 1 1 2 2 2 2 2 2 2 2 2 2 2 2 2 2 2 2 3 2 2 2 2 2
-0 -0 -0 -0 -0 -0 -0 -0 -0 -0 0 0 0 0 1 1 1 1 1 1 1 1 1 1 1 1 1 2 2 2 2 2 2 2 2 2 2 2
-1 -1 -1 -1 -1 -1 -1 -1 -1 -1 -0 -0 -0 0 0 0 0 0 1 1 1 1 1 1 1 1 1 1 1 1 1 1 1 1 1 1 1 1
-1 -1 -1 -1 -1 -1 -1 -1 -1 -1 -1 -1 -1 -1 -1 -1 -1 -1 -0 -0 0 0 0 0 0 0 0 0 0 0 0 0 0 1 1 1 1 1
-2 -2 -2 -2 -2 -2 -2 -2 -2 -2 -2 -2 -1 -1 -1 -1 -1 -1 -1 -1 -1 -1 -1 -0 -0 -0 -0 -0 -0 -0 -0 -0 -0 0 0 0 0 0
-2 -2 -2 -2 -2 -2 -2 -2 -2 -2 -2 -2 -2 -2 -2 -2 -2 -2 -2 -2 -2 -2 -1 -1 -1 -1 -1 -1 -1 -1 -1 -1 -1 -1 -1 -1 -0 -0
-3 -3 -3 -2 -2 -2 -2 -2 -2 -2 -2 -2 -2 -2 -2 -2 -2 -2 -2 -2 -2 -2 -2 -2 -2 -2 -2 -2 -1 -1 -1 -1 -1 -1 -1 -1 -1 -1
-3 -3 -3 -3 -3 -3 -3 -3 -2 -2 -3 -3 -3 -3 -3 -3 -3 -3 -3 -3 -3 -3 -3 -3 -3 -3 -2 -2 -2 -2 -2 -2 -2 -2 -2 -2 -2 -2
-3 -3 -3 -3 -3 -3 -3 -3 -3 -3 -3 -3 -3 -3 -3 -3 -3 -3 -3 -3 -3 -3 -3 -4 -4 -4 -4 -3 -3 -3 -3 -3 -3 -2 -2 -2 -2 -2
-3 -3 -3 -3 -3 -3 -3 -3 -3 -3 -3 -3 -3 -3 -3 -3 -3 -3 -3 -3 -4 -4 -4 -4 -4 -4 -5 -4 -3 -3 -3 -3 -3 -3 -3 -3 -3 -3
-3 -3 -3 -3 -3 -3 -3 -3 -3 -3 -3 -3 -3 -3 -3 -4 -4 -4 -4 -4 -4 -4 -4 -4 -5 -5 -5 -5 -4 -4 -4 -4 -4 -3 -3 -3 -3 -3
-4 -4 -4 -4 -4 -4 -4 -4 -4 -4 -4 -4 -4 -4 -4 -4 -4 -4 -4 -4 -4 -4 -4 -4 -5 -5 -5 -5 -5 -5 -4 -4 -4 -4 -4 -3 -3 -3
-4 -4 -4 -4 -4 -4 -4 -4 -4 -4 -4 -4 -4 -4 -4 -4 -4 -4 -4 -4 -4 -4 -5 -5 -5 -5 -5 -5 -5 -5 -5 -5 -5 -4 -4 -4 -4 -4
-5 -5 -4 -4 -4 -5 -5 -4 -5 -4 -4 -4 -4 -5 -5 -5 -5 -5 -5 -5 -5 -5 -5 -5 -5 -5 -5 -5 -5 -5 -5 -5 -5 -5 -5 -4 -4 -4
-5 -5 -5 -5 -5 -5 -5 -5 -5 -5 -5 -5 -5 -5 -5 -5 -5 -5 -5 -5 -5 -5 -5 -5 -5 -5 -5 -5 -5 -5 -5 -5 -5 -5 -5 -5 -4 -4
-5 -5 -5 -5 -5 -5 -5 -5 -5 -5 -5 -5 -5 -5 -5 -6 -6 -5 -6 -6 -6 -6 -6 -6 -6 -6 -6 -6 -6 -6 -6 -6 -6 -5 -5 -5 -5 -5
-6 -6 -6 -6 -6 -5 -5 -5 -5 -6 -6 -6 -6 -6 -6 -6 -6 -6 -6 -6 -6 -6 -6 -6 -6 -6 -6 -7 -6 -6 -6 -6 -6 -6 -6 -5 -5 -5
-6 -6 -6 -6 -6 -6 -6 -6 -6 -6 -6 -6 -6 -6 -6 -6 -6 -6 -6 -6 -6 -6 -6 -6 -6 -6 -6 -6 -6 -6 -6 -6 -6 -6 -6 -6 -6 -6
-6 -6 -6 -6 -6 -6 -6 -6 -6 -6 -6 -6 -6 -6 -6 -6 -6 -7 -7 -7 -7 -7 -7 -7 -7 -6 -6 -7 -7 -7 -6 -6 -6 -6 -6 -6 -7 -7
-7 -6 -6 -6 -6 -6 -6 -6 -6 -6 -6 -6 -7 -7 -7 -7 -7 -7 -7 -7 -7 -7 -7 -7 -7 -7 -7 -7 -7 -7 -7 -7 -6 -6 -6 -6 -6 -6
Wind_Speed
2 1 1 2 1 1 1 2 2 2 3 2 2 2 3 2 4 4 5 5 6 4 4 4 4 5 5 5 5 5 5 6 6 6 7 8 9 9
2 1 1 1 1 1 1 2 2 3 3 2 2 2 3 3 4 5 5 6 6 5 4 4 4 4 4 5 5 5 5 6 6 7 8 8 9 9
2 2 2 2 1 2 1 1 2 2 3 3 2 2 2 2 3 4 5 5 6 6 5 5 4 3 3 4 5 5 5 6 6 7 8 9 9 10
2 2 2 2 2 2 2 2 2 2 3 3 2 2 2 1 1 2 4 4 5 5 5 5 5 4 4 4 5 5 5 6 6 7 8 8 9 10
3 3 3 2 2 2 2 2 2 2 2 3 3 2 1 0 1 2 3 3 5 5 5 5 6 5 5 4 5 5 5 5 6 7 8 8 8 9
3 3 3 3 4 3 3 3 2 2 2 2 2 1 1 1 0 1 2 3 3 4 4 5 6 6 6 6 6 5 5 5 5 6 7 7 8 8
3 3 4 4 5 4 3 2 2 2 2 2 2 1 1 0 0 0 1 2 3 2 2 3 4 4 6 7 6 6 5 6 6 6 7 7 8 8
3 3 4 4 5 5 5 4 3 3 3 2 2 2 2 1 1 1 0 2 2 2 2 3 2 2 4 5 6 6 6 6 6 7 7 7 7 8
3 3 3 4 3 2 3 3 3 4 4 3 3 3 3 3 2 1 1 1 2 2 2 3 2 2 4 5 7 6 6 6 7 7 8 8 8 8
3 3 4 4 3 2 2 2 2 2 2 2 3 3 3 3 3 2 2 1 1 1 1 2 2 2 4 6 6 6 7 7 8 8 8 9 9 9
3 3 3 3 4 3 2 1 1 2 2 2 3 3 2 2 1 1 1 0 1 2 1 0 2 3 3 3 4 6 7 9 9 9 9 10 10 9
3 3 3 3 4 2 2 2 2 2 1 0 0 1 0 1 0 1 2 1 1 1 1 1 1 3 2 2 3 5 6 8 9 10 10 10 10 7
2 2 3 4 3 3 2 2 3 1 1 1 1 0 1 0 0 0 1 1 1 2 1 0 1 1 2 3 3 3 4 5 6 8 9 9 9 8
2 2 2 3 2 2 1 1 0 1 1 1 1 0 0 0 0 1 1 1 2 3 4 2 1 2 2 3 4 3 4 5 5 5 6 8 8 8
2 2 2 2 2 1 0 1 1 1 1 1 1 0 0 0 0 1 2 2 2 3 3 3 2 2 2 3 3 4 4 4 4 3 4 5 4 4
1 1 1 1 1 1 1 1 1 1 1 1 1 0 0 0 1 1 1 1 2 2 3 3 2 2 2 3 4 5 4 3 3 4 4 4 5 5
1 0 0 0 0 1 1 1 1 1 1 1 1 1 1 1 1 1 1 1 1 2 3 3 3 2 3 4 3 3 3 3 3 4 4 4 4 4
1 1 1 1 0 1 1 1 1 1 0 1 1 1 0 0 1 1 1 1 1 2 2 2 2 3 2 2 3 3 2 2 3 3 3 4 5 5
1 1 1 1 0 1 1 0 0 0 0 0 0 0 0 0 0 1 1 1 1 2 2 2 2 1 3 3 3 2 2 3 3 3 3 3 4 6
1 0 0 0 0 1 1 1 0 0 0 0 0 0 0 0 0 1 1 1 2 2 2 2 2 2 2 2 2 3 4 3 3 3 3 3 4 7
1 1 0 0 0 0 0 0 1 1 0 0 0 0 0 0 0 1 1 2 2 2 2 2 2 3 1 1 1 2 3 5 5 3 3 3 3 3
1 1 1 1 0 0 0 0 1 1 1 1 1 0 0 0 1 1 1 1 2 2 2 2 2 2 1 1 2 3 4 5 6 7 6 4 2 2
1 1 1 1 0 0 0 1 1 1 1 1 1 1 1 1 1 1 1 1 1 2 2 2 2 1 1 1 1 2 4 4 4 4 4 6 6 7
Wind_Direction
267 271 290 288 284 273 230 210 216 260 274 271 285 312 342 354 354 1 346 337 335 330 329 330 330 329 337 335 334 329 326 322 316 312 309 306 305 308
257 263 280 282 284 287 263 260 223 218 255 259 256 289 328 342 351 353 336 341 340 336 335 335 332 329 331 336 334 329 325 326 321 310 305 307 308 308
273 263 270 273 282 290 289 267 249 226 244 272 269 284 302 323 349 346 332 334 334 337 338 336 334 331 337 335 331 324 324 322 321 322 318 312 309 308
261 264 272 273 283 284 274 263 254 241 224 256 271 276 276 284 335 337 334 337 332 335 347 348 351 347 339 331 325 324 319 316 317 319 318 315 314 313
247 246 255 253 262 267 262 260 260 256 232 230 253 256 266 300 6 346 346 344 342 342 356 1 360 357 354 346 338 337 330 322 317 316 315 312 312 314
256 248 248 241 248 251 249 249 261 258 240 235 246 254 265 256 107 6 352 354 346 345 353 353 359 5 2 354 350 347 339 332 326 324 323 321 320 317
271 265 261 259 260 252 245 232 232 244 239 235 244 237 229 219 250 288 322 343 338 353 354 346 345 350 349 350 350 349 347 342 336 330 326 325 325 323
270 275 274 265 263 265 264 251 232 232 233 231 235 233 232 221 214 245 259 339 321 344 2 339 347 349 335 338 343 344 349 350 348 344 339 334 331 330
269 278 285 281 276 256 265 269 258 247 235 233 228 226 219 215 210 227 257 289 282 298 346 326 350 340 335 339 344 347 351 357 358 356 349 344 339 335
268 260 268 278 273 252 252 262 268 260 259 249 233 232 226 213 206 209 213 313 325 318 331 308 327 329 330 331 343 357 2 358 356 354 350 345 342 340
288 274 272 263 272 258 226 240 269 288 293 272 263 252 238 236 207 129 122 77 325 317 343 302 321 326 326 328 342 356 356 352 352 350 348 344 342 340
295 288 287 285 273 256 205 208 240 259 260 332 0 343 220 188 197 169 186 200 273 296 317 347 318 340 332 319 324 336 340 343 347 348 343 340 338 343
292 295 292 301 287 266 231 209 230 222 152 154 157 118 87 101 138 188 190 193 210 256 252 280 296 308 290 303 314 316 322 327 335 336 340 339 336 337
282 282 288 314 327 301 260 216 193 112 124 131 129 131 115 22 5 350 334 305 257 251 248 244 251 262 288 298 297 310 322 317 320 322 331 335 338 338
283 297 320 337 337 328 35 112 125 130 135 132 148 224 307 198 21 29 22 21 360 325 291 270 233 249 263 274 282 297 312 315 318 320 326 329 327 333
319 306 329 356 357 2 80 110 118 149 153 164 171 137 43 38 43 47 12 21 11 351 344 327 276 239 267 271 270 281 290 293 317 322 324 323 326 328
274 194 167 89 34 73 74 74 81 95 102 109 131 97 41 28 357 358 5 10 347 323 335 347 349 319 272 264 267 267 278 291 300 317 329 327 318 321
103 145 170 173 178 111 92 73 59 61 81 119 134 126 88 14 352 355 5 13 344 318 312 313 333 343 343 334 247 247 278 293 306 317 321 322 316 316
78 113 152 178 174 138 147 157 193 359 49 104 121 125 115 25 335 338 357 353 328 312 305 304 314 330 334 329 325 287 274 301 310 314 312 305 301 304
40 266 235 202 160 159 164 164 142 88 90 101 92 137 171 220 315 311 319 315 310 312 317 321 318 314 296 296 296 306 305 293 299 303 309 306 294 299
354 334 323 335 48 128 162 175 166 178 175 162 172 210 211 218 295 297 304 312 316 309 313 316 309 323 324 315 307 308 312 316 308 297 303 313 315 316
346 334 335 333 325 173 175 188 179 191 196 186 188 200 215 238 270 279 276 288 305 307 311 313 315 328 336 308 306 310 317 324 331 329 314 291 288 295
317 316 312 314 304 232 203 205 208 218 217 207 198 197 204 252 274 270 274 295 313 318 326 329 338 351 348 326 313 313 318 326 333 340 336 332 314 296
Height
1475 1474 1475 1475 1476 1476 1476 1477 1477 1476 1475 1475 1475 1475 1475 1475 1474 1474 1474 1474 1473 1473 1474 1474 1474 1474 1474 1474 1475 1475 1475 1475 1476 1476 1476 1476 1476 1476
1471 1471 1472 1472 1472 1473 1473 1473 1473 1473 1472 1472 1472 1472 1472 1472 1471 1471 1471 1470 1470 1470 1470 1470 1471 1471 1470 1470 1470 1470 1471 1471 1471 1471 1471 1472 1471 1471
1468 1468 1469 1469 1469 1469 1469 1470 1470 1470 1469 1468 1469 1469 1469 1468 1468 1468 1468 1467 1467 1467 1467 1467 1466 1466 1466 1466 1466 1466 1466 1467 1467 1467 1467 1467 1467 1467
1465 1465 1466 1466 1466 1466 1466 1466 1466 1466 1466 1465 1465 1465 1465 1465 1465 1465 1465 1465 1464 1464 1464 1463 1462 1462 1463 1462 1462 1462 1462 1462 1462 1462 1462 1462 1462 1462
1462 1462 1462 1462 1462 1462 1463 1463 1462 1462 1462 1462 1462 1462 1462 1462 1462 1462 1462 1462 1462 1461 1461 1460 1460 1459 1459 1459 1458 1458 1458 1458 1458 1458 1458 1458 1457 1457
1459 1459 1459 1459 1459 1459 1459 1459 1459 1459 1459 1458 1458 1459 1459 1459 1459 1459 1459 1459 1459 1459 1458 1458 1458 1457 1456 1455 1454 1454 1454 1454 1453 1453 1453 1453 1453 1452
1456 1456 1456 1456 1456 1456 1456 1456 1456 1455 1455 1455 1455 1455 1456 1456 1457 1457 1456 1456 1456 1456 1456 1455 1455 1454 1453 1453 1452 1451 1451 1450 1450 1449 1449 1448 1448 1448
1453 1453 1452 1452 1452 1452 1452 1452 1452 1452 1452 1452 1452 1453 1453 1454 1454 1454 1454 1453 1453 1454 1453 1452 1452 1451 1451 1450 1449 1448 1448 1447 1446 1446 1445 1444 1444 1444
1449 1449 1449 1449 1449 1449 1449 1449 1449 1449 1450 1450 1450 1450 1450 1451 1451 1451 1452 1452 1451 1451 1450 1448 1449 1448 1448 1447 1447 1446 1445 1444 1443 1443 1442 1441 1441 1440
1447 1446 1447 1446 1446 1446 1446 1446 1446 1446 1447 1447 1447 1448 1448 1449 1449 1450 1450 1450 1450 1450 1449 1447 1446 1446 1446 1445 1444 1443 1442 1441 1440 1440 1439 1438 1437 1436
1444 1444 1444 1443 1443 1443 1443 1443 1443 1443 1444 1444 1445 1445 1446 1447 1447 1448 1447 1447 1446 1446 1447 1445 1444 1443 1442 1442 1442 1441 1440 1439 1438 1437 1436 1435 1433 1432
1441 1441 1441 1441 1441 1440 1440 1440 1440 1441 1441 1442 1442 1443 1444 1445 1445 1446 1445 1445 1444 1444 1444 1444 1442 1441 1439 1439 1439 1439 1438 1437 1435 1434 1433 1432 1430 1429
1438 1438 1438 1438 1438 1438 1438 1438 1438 1439 1439 1440 1440 1441 1441 1442 1443 1443 1443 1443 1443 1442 1442 1442 1440 1440 1439 1437 1436 1436 1435 1434 1432 1431 1430 1429 1427 1426
1435 1435 1435 1435 1435 1436 1436 1436 1437 1437 1437 1438 1438 1438 1439 1440 1440 1440 1441 1441 1440 1440 1440 1440 1439 1438 1437 1435 1433 1433 1432 1431 1430 1428 1427 1426 1425 1423
1433 1433 1433 1433 1433 1433 1434 1434 1434 1435 1435 1435 1436 1436 1437 1437 1438 1438 1438 1438 1438 1438 1437 1437 1436 1436 1435 1433 1431 1430 1429 1429 1428 1426 1424 1423 1422 1420
1431 1431 1431 1431 1431 1431 1432 1432 1433 1433 1434 1434 1434 1434 1435 1435 1435 1435 1435 1435 1435 1435 1435 1435 1434 1433 1432 1431 1430 1429 1428 1427 1426 1424 1422 1421 1419 1418
1428 1428 1428 1429 1429 1429 1430 1430 1431 1432 1432 1432 1432 1433 1433 1433 1433 1433 1433 1433 1432 1432 1432 1432 1432 1431 1430 1429 1428 1427 1426 1425 1424 1422 1420 1418 1417 1416
1427 1426 1426 1427 1427 1428 1428 1429 1430 1430 1430 1431 1431 1431 1431 1431 1431 1432 1431 1431 1431 1430 1430 1430 1429 1428 1428 1427 1427 1425 1425 1424 1422 1421 1419 1416 1415 1414
1425 1425 1425 1426 1426 1427 1427 1428 1428 1429 1429 1429 1429 1429 1430 1430 1430 1430 1430 1430 1429 1429 1429 1428 1427 1427 1425 1424 1425 1425 1423 1421 1420 1418 1417 1415 1413 1412
1424 1424 1424 1424 1425 1425 1426 1426 1427 1427 1428 1428 1428 1428 1428 1428 1428 1428 1428 1428 1428 1427 1427 1427 1426 1426 1425 1424 1422 1422 1422 1420 1418 1416 1415 1413 1412 1410
1422 1423 1423 1423 1424 1424 1425 1425 1426 1426 1426 1427 1427 1427 1427 1427 1427 1427 1427 1427 1426 1426 1425 1425 1425 1424 1423 1422 1421 1420 1420 1419 1417 1415 1413 1411 1409 1407
1421 1421 1422 1422 1423 1423 1424 1424 1424 1425 1425 1425 1425 1426 1426 1426 1426 1426 1426 1426 1425 1425 1424 1424 1423 1423 1422 1421 1420 1418 1417 1417 1416 1414 1413 1411 1409 1407
1420 1420 1421 1421 1421 1422 1422 1423 1423 1423 1424 1424 1424 1424 1425 1425 1425 1425 1425 1424 1424 1424 1423 1422 1422 1421 1420 1420 1419 1417 1416 1415 1413 1412 1411 1410 1409 1407